YA38 LXA-VNKT

Flight info

Callsign YA38
Flight time N/A
Altitude 38000
Route LXA VNKT
Aircraft A319/M-V/N

Departure

Time N/A
Airport LXA

Arrival

Time 2026-04-28 12:37
Airport Tribhuvan International Airport (VNKT)
Time Latitude Longitude Altitude Speed Heading
2026-04-28 12:31 27.30531 85.04834 10935 ft 351 kts 31°
2026-04-28 12:31 27.30952 85.05148 10871 ft 350 kts 32°
2026-04-28 12:31 27.32880 85.06784 10614 ft 343 kts 39°
2026-04-28 12:31 27.34588 85.08580 10429 ft 330 kts 45°
2026-04-28 12:32 27.36010 85.10458 10459 ft 299 kts 51°
2026-04-28 12:32 27.37198 85.12224 10455 ft 274 kts 51°
2026-04-28 12:32 27.38315 85.13844 10370 ft 255 kts 51°
2026-04-28 12:32 27.39323 85.15414 10219 ft 241 kts 54°
2026-04-28 12:33 27.40215 85.16979 9975 ft 236 kts 56°
2026-04-28 12:33 27.41090 85.18515 9653 ft 238 kts 52°
2026-04-28 12:33 27.42182 85.19926 9322 ft 238 kts 39°
2026-04-28 12:33 27.43492 85.20988 9179 ft 233 kts 26°
2026-04-28 12:34 27.44468 85.21474 9016 ft 234 kts 15°
2026-04-28 12:34 27.46612 85.22087 8626 ft 243 kts 10°
2026-04-28 12:34 27.48266 85.22459 8442 ft 246 kts
2026-04-28 12:34 27.49956 85.22766 8294 ft 246 kts
2026-04-28 12:35 27.51626 85.23017 8122 ft 244 kts
2026-04-28 12:35 27.53313 85.23308 7841 ft 245 kts
2026-04-28 12:35 27.54942 85.23739 7575 ft 246 kts 14°
2026-04-28 12:35 27.56516 85.24470 7363 ft 245 kts 33°
2026-04-28 12:36 27.57711 85.25772 7261 ft 243 kts 51°
2026-04-28 12:36 27.58727 85.27322 6941 ft 246 kts 52°
2026-04-28 12:36 27.59852 85.28684 6512 ft 231 kts 45°
2026-04-28 12:36 27.60841 85.30058 6254 ft 222 kts 51°
2026-04-28 12:37 27.61751 85.31437 5974 ft 217 kts 49°
2026-04-28 12:37 27.62777 85.32725 5795 ft 227 kts 41°
2026-04-28 12:37 27.64022 85.33760 5497 ft 219 kts 22°
2026-04-28 12:37 27.64905 85.33794 4326 ft 5 kts 331°